Location: Oberkirch
(48.5323°N, 8.0787°E)
Time: 20:52:36
(UTC+00:00)

Tiros 1 - Pass Details

Date: 19 February 2026
Orbit: 618 x 649 km, 48.4° (Epoch: 7 March)

Event Time Altitude Azimuth Distance (km) Brightness Sun altitude
Rises 10:24:44 0° 270° (W) 2,904 10.3 27.9°
Reaches altitude 10° 10:27:03 10° 270° (W) 1,993 9.6 28.0°
Maximum altitude 10:31:39 90° 216° (SW) 625 7.6 28.3°
Drops below altitude 10° 10:36:13 10° 92° (E) 1,982 10.0 28.6°
Sets 10:38:31 0° 92° (E) 2,886 10.7 28.7°
